Location: Ermatingen
(47.6706°N, 9.0857°E)
Time: 08:20:04
(UTC+00:00)

OBJECT-B - Pass Details

Date: 18 September 2020
Orbit: 421 x 433 km, 97.0° (Epoch: 09 October)

Event Time Altitude Azimuth Distance (km) Brightness Sun altitude
Exits shadow 20:34:37 13° 279° (W) 1,329 3.9 -29.4°
Drops below altitude 10° 20:35:52 10° 301° (WNW) 1,518 4.5 -29.6°
Sets 20:38:42 0° 329° (NNW) 2,392 5.7 -30.0°
